SL-16 DEB, 22549

Orbit data source: Space-Track

SL-16 DEB, 22549 is space debris in LEO originally from a launch on Fri, 25 Dec 1992 UTC launched from the Tyuratam Missile And Space Complex (TTMTR). Debris objects in space refer to the collection of defunct objects orbiting the Earth. Examples of debris include non-operational satellites, rocket bodies, and fragments generated from explosions, collisions, or faulty payload assembly.

Loading next visibility...
Identifier
22549, 1992-093HK
Orbit
LEO
Country
Flag of CISCIS
Related business
Manufacturer
Unknown
Mission
Spacecraft
Bus & Motor
Unknown
Mass
Unknown
Launch date (UTC)
1992-12-25 (33 years ago)
Launch vehicle
Unknown
Launch site
Tyuratam Missile And Space Complex (TTMTR)
Object type
Payload
Rocket body
Debris
Shape & HBR
Unknown shape, 0.1 m
Radar Cross Section
Small (<0.1 m²)

Expand to show TLE details & history
Last TLE update: 14 hours ago

TLE from 14 hours ago
0 SL-16 DEB
1 22549U 92093HK  26037.20792713  .00002828  00000-0  12555-2 0  9994
2 22549  71.2428 118.5275 0092487  24.1534 336.3887 14.21539480693223
Epoch: 2026-02-06T04:59Z
TLE epoch observation values (Epoch: 2026-02-06T04:59:24.904Z)
Latitude
-0.00006°
Longitude
-92.67539°
Altitude
761.664 km
Speed
7.505 km/s
True Right ascension
07h 54m 06s
True Declination
0° 00' 00"
Sunlit
Object was in full shadow at epoch
Visualization orbit readout
Latitude
Unknown
Longitude
Unknown
Altitude
Unknown
Speed
Unknown
Apparent Right ascension
Unknown
Apparent Declination
Unknown
Sunlit
N/A
Visualization observer readout
Local Sidereal Time
20:39:55
Azimuth
Unknown
Elevation
Unknown
Doppler factor
Unknown
Orbital elements
Apogee altitude
884.601 km
Perigee altitude
751.49 km
Semi-major axis
7,196.182 km
Eccentricity
0.00925
Inclination
71.2428°
RAAN
118.5275°
Arg. of periapsis
24.1534°
True anomaly
335.95967°
Mean anomaly
336.3887°
Eccentric anomaly
336.17464°
Mean motion
3.55541 °/min
Orbital period
101.25 mins
BSTAR
0.0012555
Loading maneuver chart data...
Computing Atmospheric mass density...

Documentation

Showing up to 5 results
|